Torna al catalogo

COSMOS 2251 DEB

AttivoLEO
NORAD 33990·DEBRIS·🇷🇺 Russia

Lanciato Jun 16, 1993 da Plesetsk Cosmodrome

Loading…

Prossimi Passaggi (prossime 24 ore)

TLE

AggiornatoSource: Space-Track

Epoca: Sep 14, 2026, 13:32 UTC

1 33990U 93036FZ  26257.56414532  .00000206  00000-0  21265-3 0  9994
2 33990  73.9270 203.0623 0404762 172.3969 306.8687 13.50299914864526

Traccia COSMOS 2251 DEB in tempo reale con AllMySat

Download on the App Store